Weather History for Houghton, MI

Change the Weather History Date:

Sunday, February 23, 2014

  Actual Average Record
Temperature  
Mean Temperature 9 °F -  
Max Temperature 12 °F 26 °F 45 °F (1998)
Min Temperature 6 °F 12 °F -13 °F (1967)
Degree Days  
Heating Degree Days 56    
Moisture  
Dew Point 3 °F    
Average Humidity 79    
Maximum Humidity 85    
Minimum Humidity 73    
Precipitation  
Precipitation 0.25 in - - ()
Sea Level Pressure  
Sea Level Pressure 29.88 in    
Wind  
Wind Speed 24 mph (WNW)    
Max Wind Speed 32 mph    
Max Gust Speed 40 mph    
Visibility 1 miles    
Events Fog , Snow    
Averages and records for this station are not official NWS values.
T = Trace of Precipitation, MM = Missing Value Source: NWS Daily Summary

Daily Weather History Graph

Daily Weather History Graph

Search for Another Location

Airport:

Trip Planner

Search our weather history database for the weather conditions in past years. The results will help you decide how hot, cold, wet, or windy it might be!

Date:

Astronomy

Feb. 23, 2014 Rise Set
Actual Time 7:44 AM EST 6:30 PM EST
Civil Twilight 7:14 AM EST 7:01 PM EST
Nautical Twilight 6:38 AM EST 7:36 PM EST
Astronomical Twilight 6:03 AM EST 8:12 PM EST
Moon 2:54 AM EST (2/23) 12:20 PM EST (2/23)
Length of Visible Light 11h 47m
Length of Day
10h 45m
Last Quarter, 39% of the Moon is Illuminated
Feb 23
Last Quarter
Mar 1
New
Mar 8
First Quarter
Mar 16
Full
Mar 23
Last Quarter

Hourly Weather History & Observations

Time (EST) Temp. Windchill Dew Point Humidity Pressure Visibility Wind Dir Wind Speed Gust Speed Precip Events Conditions
12:35 AM 12.2 °F -9.9 °F 6.8 °F 79% 29.74 in 0.2 mi West 32.2 mph 40.3 mph 0.01 in Snow Heavy Snow
12:53 AM 10.9 °F -10.6 °F 6.1 °F 81% 29.81 in 0.2 mi West 28.8 mph 36.8 mph 0.01 in Snow Heavy Snow
1:30 AM 10.4 °F -11.0 °F 6.8 °F 85% 29.75 in 0.2 mi West 27.6 mph 36.8 mph 0.01 in Snow Heavy Snow
1:53 AM 10.0 °F -12.2 °F 5.0 °F 80% 29.83 in 0.2 mi West 29.9 mph 39.1 mph 0.02 in Snow Heavy Snow
2:07 AM 10.4 °F -9.9 °F 5.0 °F 79% 29.76 in 0.5 mi West 24.2 mph 35.7 mph 0.00 in Snow Snow
2:14 AM 10.4 °F -10.7 °F 5.0 °F 79% 29.76 in 0.2 mi West 26.5 mph 35.7 mph 0.00 in Snow Heavy Snow
2:53 AM 9.0 °F -13.0 °F 5.0 °F 84% 29.84 in 0.2 mi West 27.6 mph 38.0 mph 0.01 in Fog , Snow Snow
3:37 AM 10.4 °F -10.3 °F 5.0 °F 79% 29.77 in 0.2 mi West 25.3 mph 34.5 mph 0.01 in Snow Heavy Snow
3:53 AM 10.0 °F -10.4 °F 5.0 °F 80% 29.85 in 0.2 mi West 24.2 mph 33.4 mph 0.01 in Snow Heavy Snow
4:14 AM 10.4 °F -9.5 °F 5.0 °F 79% 29.78 in 0.2 mi West 23.0 mph 31.1 mph 0.01 in Snow Heavy Snow
4:44 AM 10.4 °F -9.5 °F 5.0 °F 79% 29.78 in 0.5 mi West 23.0 mph 33.4 mph 0.02 in Snow Snow
4:53 AM 10.0 °F -8.6 °F 5.0 °F 80% 29.86 in 0.5 mi West 19.6 mph 31.1 mph 0.02 in Snow Snow
5:12 AM 10.4 °F -9.9 °F 5.0 °F 79% 29.79 in 0.5 mi West 24.2 mph 31.1 mph 0.01 in Snow Snow
5:30 AM 10.4 °F -8.6 °F 5.0 °F 79% 29.80 in 0.2 mi West 20.7 mph 26.5 mph 0.01 in Snow Heavy Snow
5:45 AM 8.6 °F -11.4 °F 3.2 °F 79% 29.80 in 0.2 mi West 21.9 mph 32.2 mph 0.01 in Snow Heavy Snow
5:53 AM 9.0 °F -10.0 °F 3.9 °F 80% 29.87 in 0.2 mi West 19.6 mph 32.2 mph 0.01 in Snow Heavy Snow
6:23 AM 8.6 °F -11.9 °F 3.2 °F 79% 29.80 in 0.5 mi West 23.0 mph 29.9 mph 0.00 in Snow Snow
6:39 AM 8.6 °F -11.4 °F 3.2 °F 79% 29.81 in 0.2 mi West 21.9 mph 31.1 mph 0.00 in Snow Heavy Snow
6:53 AM 9.0 °F -11.8 °F 3.9 °F 80% 29.88 in 0.2 mi West 24.2 mph 34.5 mph 0.00 in Snow Heavy Snow
7:05 AM 8.6 °F -12.7 °F 3.2 °F 79% 29.81 in 0.2 mi West 25.3 mph 35.7 mph 0.00 in Snow Heavy Snow
7:32 AM 8.6 °F -11.9 °F 3.2 °F 79% 29.81 in 0.2 mi West 23.0 mph 31.1 mph 0.00 in Snow Heavy Snow
7:53 AM 8.1 °F -13.0 °F 3.0 °F 80% 29.89 in 0.2 mi West 24.2 mph 29.9 mph 0.00 in Snow Heavy Snow
8:53 AM 9.0 °F -11.4 °F 3.9 °F 80% 29.90 in 0.2 mi WNW 23.0 mph 29.9 mph 0.01 in Snow Heavy Snow
9:12 AM 8.6 °F -12.7 °F 3.2 °F 79% 29.83 in 0.2 mi WNW 25.3 mph 34.5 mph 0.00 in Snow Heavy Snow
9:46 AM 8.6 °F -10.5 °F 3.2 °F 79% 29.83 in 0.2 mi West 19.6 mph 33.4 mph 0.02 in Snow Heavy Snow
9:53 AM 9.0 °F -12.2 °F 3.9 °F 80% 29.91 in 0.2 mi WNW 25.3 mph 34.5 mph 0.02 in Snow Heavy Snow
10:41 AM 8.6 °F -12.7 °F 3.2 °F 79% 29.84 in 0.2 mi WNW 25.3 mph 33.4 mph 0.01 in Snow Heavy Snow
10:53 AM 9.0 °F -12.2 °F 3.0 °F 77% 29.91 in 0.2 mi WNW 25.3 mph 34.5 mph 0.01 in Snow Heavy Snow
11:00 AM 8.6 °F -12.3 °F 3.2 °F 79% 29.84 in 0.2 mi WNW 24.2 mph 34.5 mph 0.01 in Snow Heavy Snow
11:16 AM 8.6 °F -13.1 °F 3.2 °F 79% 29.85 in 0.2 mi West 26.5 mph 35.7 mph 0.01 in Snow Heavy Snow
11:37 AM 8.6 °F -11.9 °F 3.2 °F 79% 29.85 in 0.5 mi West 23.0 mph 33.4 mph 0.01 in Snow Snow
11:51 AM 8.6 °F -12.3 °F 3.2 °F 79% 29.85 in 0.2 mi WNW 24.2 mph 34.5 mph 0.02 in Snow Heavy Snow
11:53 AM 9.0 °F -13.0 °F 3.0 °F 77% 29.93 in 0.2 mi WNW 27.6 mph 35.7 mph 0.02 in Snow Heavy Snow
12:03 PM 8.6 °F -11.9 °F 3.2 °F 79% 29.85 in 0.2 mi WNW 23.0 mph 33.4 mph 0.00 in Snow Heavy Snow
12:32 PM 8.6 °F -12.7 °F 3.2 °F 79% 29.86 in 0.2 mi WNW 25.3 mph 32.2 mph 0.01 in Snow Heavy Snow
12:45 PM 8.6 °F -11.0 °F 1.4 °F 73% 29.86 in 0.2 mi WNW 20.7 mph 31.1 mph 0.01 in Snow Heavy Snow
12:53 PM 9.0 °F -9.5 °F 3.0 °F 77% 29.94 in 0.2 mi WNW 18.4 mph 27.6 mph 0.01 in Snow Heavy Snow
1:12 PM 8.6 °F -12.3 °F 3.2 °F 79% 29.86 in 0.2 mi West 24.2 mph 32.2 mph 0.00 in Snow Heavy Snow
1:51 PM 8.6 °F -12.7 °F 3.2 °F 79% 29.86 in 0.2 mi West 25.3 mph 33.4 mph 0.01 in Snow Heavy Snow
1:53 PM 9.0 °F -12.6 °F 3.0 °F 77% 29.94 in 0.2 mi West 26.5 mph 33.4 mph 0.02 in Snow Heavy Snow
2:50 PM 8.6 °F -11.9 °F 3.2 °F 79% 29.87 in 0.2 mi West 23.0 mph 32.2 mph 0.01 in Snow Heavy Snow
2:53 PM 9.0 °F -10.0 °F 3.0 °F 77% 29.95 in 0.2 mi West 19.6 mph 32.2 mph 0.01 in Snow Heavy Snow
3:27 PM 8.6 °F -13.1 °F 3.2 °F 79% 29.88 in 0.2 mi West 26.5 mph 36.8 mph 0.01 in Snow Heavy Snow
3:53 PM 9.0 °F -11.8 °F 3.0 °F 77% 29.96 in 0.2 mi West 24.2 mph 34.5 mph 0.01 in Snow Heavy Snow
4:04 PM 8.6 °F -12.7 °F 3.2 °F 79% 29.88 in 0.2 mi West 25.3 mph 35.7 mph 0.00 in Snow Heavy Snow
4:23 PM 8.6 °F -10.5 °F 3.2 °F 79% 29.89 in 0.2 mi West 19.6 mph 28.8 mph 0.01 in Snow Heavy Snow
4:41 PM 8.6 °F -12.3 °F 3.2 °F 79% 29.89 in 0.2 mi West 24.2 mph 31.1 mph 0.02 in Snow Heavy Snow
4:49 PM 8.6 °F -12.7 °F 3.2 °F 79% 29.89 in 0.5 mi West 25.3 mph 35.7 mph 0.03 in Snow Snow
4:53 PM 9.0 °F -10.5 °F 3.0 °F 77% 29.97 in 0.5 mi WNW 20.7 mph 35.7 mph 0.03 in Snow Snow
5:02 PM 10.4 °F -9.5 °F 3.2 °F 73% 29.89 in 0.5 mi WNW 23.0 mph 31.1 mph 0.00 in Snow Snow
5:38 PM 8.6 °F -10.5 °F 3.2 °F 79% 29.90 in 1.0 mi West 19.6 mph 25.3 mph 0.01 in Snow Light Snow
5:53 PM 9.0 °F -10.0 °F 3.0 °F 77% 29.97 in 1.2 mi WNW 19.6 mph 25.3 mph 0.01 in Snow Light Snow
6:25 PM 8.6 °F -10.5 °F 3.2 °F 79% 29.91 in 2.0 mi WNW 19.6 mph - 0.00 in Snow Light Snow
6:31 PM 8.6 °F -11.0 °F 3.2 °F 79% 29.90 in 1.2 mi WNW 20.7 mph 27.6 mph 0.00 in Snow Light Snow
6:45 PM 8.6 °F -9.5 °F 3.2 °F 79% 29.91 in 3.0 mi WNW 17.3 mph - 0.00 in Snow Light Snow
6:53 PM 8.1 °F -10.2 °F 1.9 °F 76% 29.99 in 6.0 mi WNW 17.3 mph - 0.00 in   Haze
7:00 PM 8.6 °F -10.0 °F 3.2 °F 79% 29.91 in 4.0 mi WNW 18.4 mph 25.3 mph 0.00 in Snow Light Snow
7:05 PM 8.6 °F -11.0 °F 3.2 °F 79% 29.91 in 1.8 mi WNW 20.7 mph - 0.00 in Snow Light Snow
7:21 PM 8.6 °F -10.0 °F 3.2 °F 79% 29.92 in 1.8 mi WNW 18.4 mph - 0.00 in Snow Light Snow
7:27 PM 8.6 °F -10.5 °F 3.2 °F 79% 29.92 in 2.5 mi WNW 19.6 mph - 0.00 in Snow Light Snow
7:39 PM 8.6 °F -11.4 °F 3.2 °F 79% 29.92 in 1.2 mi WNW 21.9 mph 26.5 mph 0.00 in Snow Light Snow
7:53 PM 9.0 °F -9.0 °F 3.0 °F 77% 30.00 in 1.2 mi NW 17.3 mph - 0.00 in Snow Light Snow
8:07 PM 8.6 °F -10.5 °F 3.2 °F 79% 29.92 in 1.0 mi WNW 19.6 mph 25.3 mph 0.00 in Snow Light Snow
8:36 PM 8.6 °F -11.4 °F 3.2 °F 79% 29.92 in 1.0 mi NW 21.9 mph 27.6 mph 0.01 in Snow Light Snow
8:53 PM 8.1 °F -10.7 °F 3.0 °F 80% 30.01 in 2.5 mi WNW 18.4 mph - 0.01 in Snow Light Snow
9:20 PM 8.6 °F -10.0 °F 1.4 °F 73% 29.94 in 3.0 mi NW 18.4 mph 25.3 mph 0.00 in   Haze
9:34 PM 8.6 °F -10.0 °F 1.4 °F 73% 29.94 in 2.0 mi NW 18.4 mph - 0.00 in Snow Light Snow
9:53 PM 8.1 °F -10.2 °F 1.9 °F 76% 30.02 in 3.0 mi NW 17.3 mph - 0.00 in Snow Light Snow
10:13 PM 6.8 °F -11.3 °F 1.4 °F 79% 29.95 in 2.0 mi NW 16.1 mph - 0.00 in Snow Light Snow
10:20 PM 6.8 °F -11.8 °F 1.4 °F 79% 29.95 in 2.0 mi NW 17.3 mph - 0.00 in Snow Light Snow
10:29 PM 6.8 °F -10.7 °F 1.4 °F 79% 29.95 in 1.2 mi NW 15.0 mph - 0.00 in Snow Light Snow
10:47 PM 6.8 °F -12.4 °F 1.4 °F 79% 29.95 in 2.0 mi NW 18.4 mph - 0.01 in Snow Light Snow
10:53 PM 7.0 °F -11.6 °F 1.0 °F 77% 30.03 in 3.0 mi NW 17.3 mph - 0.01 in   Haze
11:53 PM 6.1 °F -12.8 °F -0.0 °F 76% 30.03 in 6.0 mi NW 17.3 mph - N/A   Haze